Greenville Junction, ME

11:39 PM EST on February 12, 2016 (GMT -0500)
Greenville

Weather History for KGNR - September, 2013

Change the Weather History Date:

Friday, September 20, 2013

  Actual Average (KMLT) Record (KMLT)
Temperature  
Mean Temperature 62 °F 56 °F  
Max Temperature 72 °F 66 °F 84 °F (1946)
Min Temperature 52 °F 45 °F 25 °F (1929)
Degree Days  
Heating Degree Days 4 10  
Month to date heating degree days 129  
Since 1 July heating degree days 208  
Cooling Degree Days 0 0  
Month to date cooling degree days 15  
Year to date cooling degree days 266  
Growing Degree Days 12 (Base 50)    
Moisture  
Dew Point 51 °F    
Average Humidity 71    
Maximum Humidity 89    
Minimum Humidity 53    
Precipitation  
Precipitation 0.00 in 0.13 in 1.38 in (1918)
Month to date precipitation 2.34  
Year to date precipitation 29.27  
Snow  
Snow 0.00 in - - ()
Snow Depth -    
Sea Level Pressure  
Sea Level Pressure 30.05 in    
Wind  
Wind Speed 2 mph (East)    
Max Wind Speed 7 mph    
Max Gust Speed -    
T = Trace of Precipitation, MM = Missing Value Source: NWS Daily Summary

Daily Weather History Graph

Daily Weather History Graph

Search for Another Location

Airport or City:

Trip Planner

Search our weather history database for the weather conditions in past years. The results will help you decide how hot, cold, wet, or windy it might be!

Date:

Astronomy

Sep. 20, 2013 Rise Set
Actual Time 6:23 AM EDT 6:39 PM EDT
Civil Twilight 5:53 AM EDT 7:08 PM EDT
Nautical Twilight 5:18 AM EDT 7:43 PM EDT
Astronomical Twilight 4:42 AM EDT 8:19 PM EDT
Moon 7:04 PM EDT (9/20) 7:39 AM EDT (9/20)
Length of Visible Light 13h 15m
Length of Day
12h 16m
Full, 98% of the Moon is Illuminated
Sep 20
Full
Sep 26
Last Quarter
Oct 4
New
Oct 11
First Quarter
Oct 18
Full

Hourly Weather History & Observations

Time (EDT) Temp. Dew Point Humidity Pressure Visibility Wind Dir Wind Speed Gust Speed Precip Events Conditions
12:56 AM 54.0 °F 46.9 °F 77% 30.05 in - NNE 4.6 mph - N/A   Unknown
1:56 AM 54.0 °F 46.9 °F 77% 30.05 in - Calm Calm - N/A   Unknown
2:56 AM 53.1 °F 46.9 °F 80% 30.04 in - Calm Calm - N/A   Unknown
3:56 AM 52.0 °F 45.0 °F 77% 30.04 in - Calm Calm - N/A   Unknown
4:56 AM 54.0 °F 46.0 °F 75% 30.04 in - North 4.6 mph - N/A   Unknown
5:56 AM 54.0 °F 46.9 °F 77% 30.05 in - North 4.6 mph - N/A   Unknown
6:56 AM 53.1 °F 48.0 °F 83% 30.07 in - Calm Calm - N/A   Unknown
7:56 AM 57.9 °F 52.0 °F 81% 30.08 in - Calm Calm - N/A   Unknown
8:56 AM 63.0 °F 50.0 °F 63% 30.09 in - Calm Calm - N/A   Unknown
9:56 AM 64.9 °F 53.1 °F 65% 30.10 in - Calm Calm - N/A   Unknown
10:56 AM 68.0 °F 53.1 °F 59% 30.09 in - Calm Calm - N/A   Unknown
11:56 AM 69.1 °F 53.1 °F 57% 30.07 in - Variable 4.6 mph - N/A   Unknown
12:56 PM 69.1 °F 53.1 °F 57% 30.06 in - Variable 3.5 mph - N/A   Unknown
1:56 PM 70.0 °F 53.1 °F 55% 30.04 in - Calm Calm - N/A   Unknown
2:56 PM 71.1 °F 53.1 °F 53% 30.03 in - South 6.9 mph - N/A   Unknown
3:56 PM 71.1 °F 54.0 °F 55% 30.02 in - Variable 3.5 mph - N/A   Unknown
4:56 PM 70.0 °F 53.1 °F 55% 30.02 in - Variable 3.5 mph - N/A   Unknown
5:56 PM 68.0 °F 54.0 °F 61% 30.03 in - Variable 4.6 mph - N/A   Unknown
6:56 PM 64.0 °F 55.0 °F 73% 30.02 in - Variable 3.5 mph - N/A   Unknown
7:56 PM 61.0 °F 54.0 °F 78% 30.04 in - Calm Calm - N/A   Unknown
8:56 PM 60.1 °F 52.0 °F 75% 30.03 in - South 3.5 mph - N/A   Unknown
9:56 PM 57.0 °F 53.1 °F 87% 30.03 in - Variable 3.5 mph - N/A   Unknown
10:56 PM 55.0 °F 52.0 °F 89% 30.03 in - Variable 3.5 mph - N/A   Unknown
11:56 PM 53.1 °F 50.0 °F 89% 30.02 in - SE 3.5 mph - N/A   Unknown